When you browse on this site, cookies collect data to enhance your experience and personalize the content and advertising you see.
Visit our Privacy Policy to learn more. By continuing to use the site, you agree to this use of cookies and data.
  • In Hungary
  • List of Countries
  • For 7 days
  • Water Temperature
  • Weather Map
  • News
  • Weather Widgets
  • user-avatar
    Login

    Hourly Weather Tot'ma

    Today, 18 August, Sunday

    Time Temperature Precipitation Wind Pressure Humidity
    00:00 +12°C° 0 mm 2 mps 752 mmHg 83%
    01:00 +12°C° 0 mm 2 mps 752 mmHg 84%
    02:00 +12°C° 0 mm 2 mps 752 mmHg 85%
    03:00 +10°C° 0 mm 2 mps 752 mmHg 85%
    04:00 +12°C° 0 mm 2 mps 752 mmHg 84%
    05:00 +11°C° 0 mm 3 mps 752 mmHg 82%
    06:00 +12°C° 0 mm 3 mps 752 mmHg 81%
    07:00 +13°C° 0 mm 3 mps 752 mmHg 76%
    08:00 +16°C° 0 mm 3 mps 752 mmHg 72%
    09:00 +18°C° 0 mm 4 mps 752 mmHg 68%
    10:00 +19°C° 0 mm 4 mps 751 mmHg 66%
    11:00 +20°C° 0 mm 4 mps 751 mmHg 63%
    12:00 +20°C° 0 mm 4 mps 751 mmHg 61%
    13:00 +20°C° 0 mm 4 mps 751 mmHg 66%
    14:00 +19°C° 0 mm 4 mps 751 mmHg 72%
    15:00 +18°C° 0 mm 3 mps 751 mmHg 77%
    16:00 +17°C° 0.1 mm 3 mps 751 mmHg 82%
    17:00 +16°C° 0.1 mm 3 mps 750 mmHg 87%
    18:00 +14°C° 0.1 mm 3 mps 750 mmHg 92%
    19:00 +14°C° 0.1 mm 3 mps 750 mmHg 94%
    20:00 +14°C° 0.1 mm 3 mps 750 mmHg 96%
    21:00 +14°C° 0.1 mm 3 mps 750 mmHg 97%
    22:00 +14°C° 0 mm 3 mps 750 mmHg 97%
    23:00 +14°C° 0 mm 3 mps 749 mmHg 97%

    Tomorrow, 19 August, Monday

    Time Temperature Precipitation Wind Pressure Humidity
    00:00 +14°C° 0 mm 3 mps 749 mmHg 97%
    01:00 +16°C° 0.1 mm 3 mps 749 mmHg 98%
    02:00 +16°C° 0.1 mm 2 mps 749 mmHg 98%
    03:00 +16°C° 0.1 mm 2 mps 749 mmHg 98%
    04:00 +16°C° 0.1 mm 2 mps 749 mmHg 98%
    05:00 +16°C° 0.1 mm 2 mps 748 mmHg 98%
    06:00 +16°C° 0.1 mm 2 mps 748 mmHg 98%
    07:00 +17°C° 0.9 mm 2 mps 748 mmHg 98%
    08:00 +17°C° 0.9 mm 2 mps 748 mmHg 98%
    09:00 +18°C° 0.9 mm 2 mps 748 mmHg 97%
    10:00 +19°C° 0.5 mm 1 mps 748 mmHg 95%
    11:00 +20°C° 0.5 mm 1 mps 748 mmHg 93%
    12:00 +21°C° 0.5 mm 1 mps 748 mmHg 91%
    13:00 +22°C° 0.5 mm 1 mps 748 mmHg 91%
    14:00 +22°C° 0.5 mm 1 mps 748 mmHg 90%
    15:00 +22°C° 0.5 mm 1 mps 748 mmHg 89%
    16:00 +22°C° 0.9 mm 1 mps 748 mmHg 90%
    17:00 +22°C° 0.9 mm 1 mps 748 mmHg 91%
    18:00 +20°C° 0.9 mm 0 mps 748 mmHg 92%
    19:00 +21°C° 0.2 mm 1 mps 748 mmHg 94%
    20:00 +19°C° 0.2 mm 1 mps 748 mmHg 95%
    21:00 +18°C° 0.2 mm 1 mps 749 mmHg 97%
    22:00 +18°C° 0 mm 1 mps 749 mmHg 97%
    23:00 +16°C° 0 mm 1 mps 749 mmHg 97%

    Day after tomorrow, 20 August, Tuesday

    Time Temperature Precipitation Wind Pressure Humidity
    00:00 +16°C° 0 mm 1 mps 749 mmHg 97%
    01:00 +16°C° 0 mm 1 mps 749 mmHg 97%
    02:00 +15°C° 0 mm 1 mps 750 mmHg 98%
    03:00 +15°C° 0 mm 1 mps 750 mmHg 98%
    04:00 +15°C° 0 mm 1 mps 750 mmHg 98%
    05:00 +15°C° 0 mm 1 mps 750 mmHg 98%
    06:00 +16°C° 0 mm 1 mps 750 mmHg 98%
    07:00 +18°C° 0 mm 1 mps 751 mmHg 94%
    08:00 +20°C° 0 mm 1 mps 751 mmHg 91%
    09:00 +21°C° 0 mm 1 mps 751 mmHg 87%
    10:00 +22°C° 0 mm 1 mps 751 mmHg 79%
    11:00 +24°C° 0 mm 2 mps 751 mmHg 71%
    12:00 +25°C° 0 mm 2 mps 751 mmHg 63%
    13:00 +25°C° 0 mm 2 mps 751 mmHg 62%
    14:00 +26°C° 0 mm 2 mps 751 mmHg 61%
    15:00 +26°C° 0 mm 2 mps 751 mmHg 59%
    16:00 +25°C° 0.2 mm 2 mps 751 mmHg 68%
    17:00 +24°C° 0.2 mm 1 mps 751 mmHg 76%
    18:00 +23°C° 0.2 mm 1 mps 751 mmHg 84%
    19:00 +22°C° 0.6 mm 1 mps 751 mmHg 88%
    20:00 +21°C° 0.6 mm 1 mps 751 mmHg 92%
    21:00 +18°C° 0.6 mm 2 mps 751 mmHg 96%
    22:00 +18°C° 0.2 mm 2 mps 751 mmHg 97%
    23:00 +18°C° 0.2 mm 2 mps 752 mmHg 98%

    21 August, Wednesday

    Time Temperature Precipitation Wind Pressure Humidity
    00:00 +17°C° 0.2 mm 2 mps 752 mmHg 98%
    01:00 +17°C° 0 mm 2 mps 752 mmHg 98%
    02:00 +17°C° 0 mm 2 mps 752 mmHg 98%
    03:00 +17°C° 0 mm 2 mps 753 mmHg 98%
    04:00 +16°C° 0 mm 2 mps 753 mmHg 98%
    05:00 +16°C° 0 mm 2 mps 753 mmHg 97%
    06:00 +15°C° 0 mm 2 mps 753 mmHg 97%
    07:00 +16°C° 0 mm 2 mps 754 mmHg 93%
    08:00 +17°C° 0 mm 2 mps 754 mmHg 88%
    09:00 +18°C° 0 mm 2 mps 754 mmHg 84%
    10:00 +19°C° 0 mm 3 mps 755 mmHg 75%
    11:00 +21°C° 0 mm 3 mps 755 mmHg 65%
    12:00 +22°C° 0 mm 3 mps 755 mmHg 56%
    13:00 +22°C° 0 mm 3 mps 755 mmHg 55%
    14:00 +24°C° 0 mm 3 mps 755 mmHg 54%
    15:00 +24°C° 0 mm 3 mps 755 mmHg 53%
    16:00 +22°C° 0 mm 3 mps 755 mmHg 59%
    17:00 +23°C° 0 mm 2 mps 755 mmHg 66%
    18:00 +22°C° 0 mm 1 mps 754 mmHg 72%
    19:00 +20°C° 0 mm 1 mps 754 mmHg 77%
    20:00 +18°C° 0 mm 1 mps 755 mmHg 82%
    21:00 +16°C° 0 mm 1 mps 755 mmHg 88%
    22:00 +15°C° 0 mm 1 mps 754 mmHg 88%
    23:00 +15°C° 0 mm 1 mps 754 mmHg 89%

    22 August, Thursday

    Time Temperature Precipitation Wind Pressure Humidity
    00:00 +14°C° 0 mm 1 mps 754 mmHg 90%
    01:00 +14°C° 0 mm 1 mps 754 mmHg 89%
    02:00 +14°C° 0 mm 1 mps 754 mmHg 87%
    03:00 +13°C° 0 mm 0 mps 754 mmHg 85%
    04:00 +13°C° 0 mm 0 mps 754 mmHg 86%
    05:00 +13°C° 0 mm 0 mps 753 mmHg 86%
    06:00 +14°C° 0 mm 0 mps 753 mmHg 87%
    07:00 +15°C° 0.1 mm 1 mps 753 mmHg 89%
    08:00 +15°C° 0.1 mm 1 mps 753 mmHg 91%
    09:00 +15°C° 0.1 mm 2 mps 752 mmHg 93%
    10:00 +15°C° 0.8 mm 2 mps 752 mmHg 94%
    11:00 +15°C° 0.8 mm 2 mps 751 mmHg 96%
    12:00 +15°C° 0.8 mm 2 mps 751 mmHg 97%
    13:00 +15°C° 3.2 mm 2 mps 750 mmHg 97%
    14:00 +15°C° 3.2 mm 2 mps 750 mmHg 98%
    15:00 +15°C° 3.2 mm 2 mps 749 mmHg 98%
    16:00 +16°C° 1.4 mm 2 mps 749 mmHg 98%
    17:00 +16°C° 1.4 mm 2 mps 749 mmHg 98%
    18:00 +16°C° 1.4 mm 3 mps 748 mmHg 98%
    19:00 +14°C° 0.1 mm 3 mps 748 mmHg 98%
    20:00 +14°C° 0.1 mm 4 mps 749 mmHg 97%
    21:00 +13°C° 0.1 mm 4 mps 749 mmHg 97%
    22:00 +12°C° 0 mm 4 mps 749 mmHg 97%
    23:00 +12°C° 0 mm 4 mps 749 mmHg 96%

    23 August, Friday

    Time Temperature Precipitation Wind Pressure Humidity
    00:00 +12°C° 0 mm 3 mps 750 mmHg 96%
    01:00 +11°C° 0 mm 3 mps 750 mmHg 97%
    02:00 +10°C° 0 mm 3 mps 751 mmHg 97%
    03:00 +10°C° 0 mm 2 mps 751 mmHg 98%
    04:00 +10°C° 0 mm 2 mps 751 mmHg 98%
    05:00 +10°C° 0 mm 2 mps 752 mmHg 97%
    06:00 +10°C° 0 mm 2 mps 752 mmHg 97%
    07:00 +13°C° 0 mm 2 mps 752 mmHg 91%
    08:00 +14°C° 0 mm 2 mps 752 mmHg 86%
    09:00 +16°C° 0 mm 2 mps 752 mmHg 81%
    10:00 +17°C° 0 mm 3 mps 752 mmHg 74%
    11:00 +19°C° 0 mm 3 mps 752 mmHg 67%
    12:00 +20°C° 0 mm 3 mps 752 mmHg 60%
    13:00 +20°C° 0 mm 3 mps 753 mmHg 59%
    14:00 +21°C° 0 mm 3 mps 753 mmHg 57%
    15:00 +21°C° 0 mm 3 mps 753 mmHg 56%
    16:00 +20°C° 0 mm 3 mps 753 mmHg 61%
    17:00 +19°C° 0 mm 2 mps 753 mmHg 67%
    18:00 +19°C° 0 mm 2 mps 753 mmHg 72%
    19:00 +17°C° 0 mm 2 mps 753 mmHg 76%
    20:00 +15°C° 0 mm 2 mps 753 mmHg 79%
    21:00 +13°C° 0 mm 2 mps 753 mmHg 82%
    22:00 +12°C° 0 mm 1 mps 754 mmHg 84%
    23:00 +11°C° 0 mm 1 mps 754 mmHg 85%
    Show more